THOR ABLESTAR DEB, 5745

Orbit data source: Space-Track

THOR ABLESTAR DEB, 5745 is space debris in LEO originally from a launch on Thu, 29 Jun 1961 UTC launched from the Air Force Eastern Test Range (AFETR). Debris objects in space refer to the collection of defunct objects orbiting the Earth. Examples of debris include non-operational satellites, rocket bodies, and fragments generated from explosions, collisions, or faulty payload assembly.

Loading next visibility...
Identifier
5745, 1961-015JU
Orbit
LEO
Country
Flag of USUS
Related business
Manufacturer
Unknown
Mission
Spacecraft
Bus & Motor
Unknown
Mass
Unknown
Launch date (UTC)
1961-06-29 (65 years ago)
Launch vehicle
Unknown
Launch site
Air Force Eastern Test Range (AFETR)
Object type
Payload
Rocket body
Debris
Shape & HBR
Unknown
Radar Cross Section
Medium (>0.1 m² and <1 m²)

Expand to show TLE details & history
Last TLE update: 7 hours ago

TLE from 7 hours ago
0 THOR ABLESTAR DEB
1 05745U 61015JU  26175.17047462  .00012825  00000-0  25535-2 0  9996
2 05745  67.0637  99.5575 0039382  15.6244 344.6078 14.61750890267760
Epoch: 2026-06-24T04:05Z
TLE epoch observation values (Epoch: 2026-06-24T04:05:29.007Z)
Latitude
-0.00004°
Longitude
125.85509°
Altitude
662.869 km
Speed
7.54 km/s
True Right ascension
06h 38m 13s
True Declination
0° 00' 00"
Sunlit
Object was in daylight at epoch
Visualization orbit readout
Latitude
Unknown
Longitude
Unknown
Altitude
Unknown
Speed
Unknown
Apparent Right ascension
Unknown
Apparent Declination
Unknown
Sunlit
N/A
Visualization observer readout
Local Sidereal Time
21:53:50
Azimuth
Unknown
Elevation
Unknown
Doppler factor
Unknown
Orbital elements
Apogee altitude
713.653 km
Perigee altitude
658.015 km
Semi-major axis
7,063.971 km
Eccentricity
0.00394
Inclination
67.0637°
RAAN
99.5575°
Arg. of periapsis
15.6244°
True anomaly
344.48745°
Mean anomaly
344.6078°
Eccentric anomaly
344.54768°
Mean motion
3.65569 °/min
Orbital period
98.48 mins
BSTAR
0.0025535
Loading maneuver chart data...
Computing Atmospheric mass density...

Documentation

Showing up to 5 results
|